CZ-6A DEB, 54632

Orbit data source: Space-Track

CZ-6A DEB, 54632 is space debris in SSO originally from a launch on Fri, 11 Nov 2022 UTC launched from the Taiyaun Space Center, China (TSC). Debris objects in space refer to the collection of defunct objects orbiting the Earth. Examples of debris include non-operational satellites, rocket bodies, and fragments generated from explosions, collisions, or faulty payload assembly.

Loading next visibility...
Identifier
54632, 2022-151PJ
Orbit
SSO
Country
Flag of CNCN / PRC
Related business
Manufacturer
SAST
Mission
Spacecraft
Bus & Motor
Unknown
Mass
Unknown
Launch date (UTC)
2022-11-11 (4 years ago)
Launch vehicle
Unknown
Launch site
Taiyaun Space Center, China (TSC)
Object type
Payload
Rocket body
Debris
Shape & HBR
Unknown shape, 0.1 m
Radar Cross Section
Medium (>0.1 m² and <1 m²)

Expand to show TLE details & history
Last TLE update: 17 hours ago

TLE from 17 hours ago
0 CZ-6A DEB
1 54632U 22151PJ  26219.69747805  .00012806  00000-0  14800-2 0  9999
2 54632  98.6450 295.1081 0051740 116.7891 243.8628 14.84754075197027
Epoch: 2026-08-07T16:44Z
TLE epoch observation values (Epoch: 2026-08-07T16:44:22.103Z)
Latitude
0.00006°
Longitude
87.79654°
Altitude
633.454 km
Speed
7.533 km/s
True Right ascension
19h 40m 25s
True Declination
0° 00' 00"
Sunlit
Object was in full shadow at epoch
Visualization orbit readout
Latitude
Unknown
Longitude
Unknown
Altitude
Unknown
Speed
Unknown
Apparent Right ascension
Unknown
Apparent Declination
Unknown
Sunlit
N/A
Visualization observer readout
Local Sidereal Time
23:45:34
Azimuth
Unknown
Elevation
Unknown
Doppler factor
Unknown
Orbital elements
Apogee altitude
647.591 km
Perigee altitude
575.263 km
Semi-major axis
6,989.564 km
Eccentricity
0.00517
Inclination
98.645°
RAAN
295.1081°
Arg. of periapsis
116.7891°
True anomaly
243.33205°
Mean anomaly
243.8628°
Eccentric anomaly
243.59727°
Mean motion
3.71422 °/min
Orbital period
96.92 mins
BSTAR
0.00148
Loading maneuver chart data...
Computing Atmospheric mass density...
Loading historical data...
Loading historical data...
Loading historical data...
Loading historical data...
Loading historical data...
Loading historical data...
Loading historical data...

Documentation

Showing up to 5 results
|